GFSSGP_700_rhum_072.txt.gz
RH
6 6 6 7 9 10 11 13 23 24 25 25 37 45 44 36 38 41 37 44 41 47 40 62 79 87 79 72 70 70 61 67 60 46 33 28 13 12 6 5 5 7 10 12 10 12 13 11 13
6 7 6 14 18 20 23 23 25 23 23 26 29 34 44 40 40 37 37 46 43 57 66 87 91 98 98 92 88 79 76 67 60 43 38 42 10 7 6 6 8 10 12 13 12 14 14 16 17
7 7 9 18 23 24 23 27 23 22 21 27 36 44 35 29 31 32 31 38 50 58 62 69 80 98 99 99 94 93 82 80 61 56 41 43 8 7 8 10 11 13 14 13 14 15 17 20 20
8 9 14 23 22 22 24 29 24 25 22 33 35 36 35 34 35 40 44 45 52 63 61 67 88 98 99 100 95 99 97 83 70 59 40 39 8 11 14 15 14 15 14 16 17 21 22 24 23
11 14 21 22 22 23 23 29 30 29 24 24 27 28 31 29 34 40 38 49 66 59 67 68 81 80 94 88 97 84 94 92 78 74 65 48 14 17 30 18 18 16 17 19 23 27 28 28 28
10 14 22 23 22 22 22 24 26 28 24 23 26 24 26 29 37 39 38 43 48 60 54 55 58 63 69 70 80 98 100 91 93 97 35 12 19 20 24 21 20 18 21 23 27 31 32 32 30
11 26 22 23 22 23 23 23 32 32 27 25 26 28 29 37 42 39 43 54 58 71 65 62 69 75 87 82 89 100 98 98 93 97 19 33 20 24 25 25 24 23 25 30 33 34 34 33 33
25 25 23 22 22 24 26 26 25 31 28 26 27 32 37 43 42 39 38 52 56 68 68 63 66 74 51 64 74 86 93 99 99 100 62 22 38 26 30 30 28 30 31 36 38 39 38 35 36
23 25 22 22 24 28 29 27 28 29 31 28 28 31 36 39 39 41 49 47 53 60 60 61 64 70 79 78 84 82 96 99 100 92 36 33 29 29 37 37 35 38 38 40 40 40 40 37 31
22 20 23 23 28 30 28 27 26 29 33 31 32 35 38 40 46 41 54 53 53 58 58 66 70 74 85 85 75 89 99 100 100 97 81 51 43 50 36 48 46 46 43 43 44 42 44 39 30
23 17 24 24 30 29 30 28 29 32 32 31 31 43 48 52 54 46 50 52 66 69 70 69 73 77 80 79 82 95 100 100 100 100 97 77 50 44 52 54 52 52 48 45 45 46 47 51 38
27 20 25 25 28 28 30 29 28 31 29 30 32 48 52 51 50 48 53 60 71 72 67 62 57 52 62 60 80 91 100 98 99 99 89 59 50 57 61 62 62 59 52 51 60 63 59 52 50
18 20 25 28 28 28 30 29 29 25 29 28 35 50 50 54 60 58 51 46 38 33 30 30 34 35 54 60 74 91 100 100 100 93 72 52 62 76 79 74 73 59 61 67 62 64 56 59 55
14 21 24 26 27 27 27 28 26 27 30 30 36 50 48 52 61 65 38 26 24 20 19 30 50 62 90 78 84 82 98 100 100 88 74 66 78 89 88 85 85 72 68 63 65 55 54 47 45
13 15 21 22 18 19 27 28 27 32 32 34 40 50 34 45 59 56 34 26 21 23 35 48 97 100 79 95 84 88 99 100 100 98 84 73 70 92 88 85 89 78 68 67 62 55 50 42 44
16 15 13 22 25 22 33 30 30 35 34 38 41 49 34 36 41 41 28 20 24 30 35 53 98 98 100 91 89 99 100 100 100 100 95 92 91 92 98 100 92 84 80 72 63 55 57 47 42
17 17 14 13 18 26 34 30 28 30 36 36 38 41 41 36 39 35 22 19 21 25 32 81 98 100 94 99 99 98 100 100 100 100 99 99 98 99 99 98 99 93 75 80 65 63 62 53 50
19 16 14 12 13 33 33 31 26 32 36 35 34 37 41 32 36 37 31 21 20 23 36 76 95 98 100 100 100 99 100 100 100 100 100 99 98 99 98 97 99 95 88 79 68 66 73 64 63
22 20 18 17 27 25 33 31 30 33 34 33 32 36 43 40 40 39 34 24 24 23 38 72 93 98 100 98 95 100 98 99 99 100 99 99 98 98 97 92 96 98 73 77 64 63 82 82 84
24 21 18 13 17 24 34 33 29 30 31 32 32 33 39 31 42 43 26 25 28 24 30 59 74 84 97 100 100 99 100 100 100 99 99 100 99 97 96 96 97 97 68 61 62 72 83 85 93
26 24 20 15 15 30 36 35 34 32 30 30 31 33 36 25 34 36 18 28 31 29 26 31 53 63 82 97 99 100 100 99 100 99 99 98 98 96 98 97 96 86 68 60 62 75 83 84 98
28 25 20 14 23 37 39 48 38 35 32 31 30 32 35 41 30 24 18 28 33 32 30 28 28 30 31 44 74 96 98 98 98 99 99 100 99 96 96 98 94 78 64 60 60 66 79 90 94
31 29 23 18 32 42 43 45 39 35 34 29 26 28 33 39 33 28 30 23 30 34 30 32 31 30 28 29 37 56 74 84 92 98 100 99 94 90 94 92 88 76 68 71 69 71 99 100 100
32 38 39 46 47 60 44 42 36 33 30 24 19 23 28 29 43 45 34 26 27 29 31 30 32 32 33 33 33 34 35 43 54 60 71 72 82 89 87 81 80 87 87 89 91 98 99 90 87
42 48 53 58 64 64 37 40 36 30 22 34 32 23 23 25 29 46 51 35 21 25 29 29 28 29 32 35 38 39 36 36 36 41 46 48 51 54 63 69 74 79 70 68 70 80 78 82 81
44 48 52 60 69 51 43 48 33 29 28 36 32 28 23 28 31 37 46 38 22 22 25 27 25 27 29 34 37 41 42 43 40 41 43 47 49 51 55 63 68 71 65 63 63 64 67 75 97
43 51 42 44 57 66 43 38 36 32 24 25 29 29 31 29 32 36 41 42 36 31 30 26 27 27 29 33 36 39 43 44 45 46 46 46 49 52 60 64 59 57 77 78 89 94 99 93 95
33 37 43 49 61 69 56 52 36 30 35 34 35 32 30 29 34 32 35 40 43 42 46 50 47 32 34 36 37 40 43 46 48 46 45 47 49 51 49 54 54 62 67 82 85 96 100 89 86
44 47 45 45 44 60 62 46 35 31 38 38 35 33 30 29 29 30 33 38 41 45 47 50 56 53 45 37 38 39 42 46 49 50 54 59 72 80 85 96 99 99 100 90 93 93 98 88 78
48 43 40 47 49 52 49 44 36 34 36 34 37 31 32 31 30 31 31 31 36 41 44 49 53 57 61 58 54 45 46 50 51 48 53 60 68 77 88 99 99 74 86 100 98 88 90 93 96

GFSSGP_700_rhum_075.txt.gz
RH
6 6 6 6 8 8 11 20 22 24 22 22 31 33 42 42 43 39 31 32 52 54 55 61 61 60 76 74 82 72 71 60 64 74 68 45 34 29 14 9 8 5 11 13 13 14 14 12 12
7 7 7 12 19 22 22 24 26 24 23 21 24 30 39 44 34 30 28 36 50 53 60 62 66 85 83 80 89 75 76 64 62 63 60 41 29 18 9 7 6 7 14 14 14 15 13 14 17
8 7 7 18 22 22 22 27 23 24 21 22 28 34 31 31 33 33 34 43 50 49 66 84 95 86 97 83 80 82 81 68 72 61 44 36 32 30 8 6 6 13 16 15 16 16 17 19 20
8 8 10 20 21 23 24 29 28 25 23 26 25 26 28 33 29 32 36 37 47 49 61 73 70 84 89 72 80 82 81 77 81 75 48 33 43 41 6 6 11 18 18 18 17 18 20 23 24
9 9 12 20 22 24 24 28 30 27 24 23 24 26 24 24 26 33 39 39 45 52 70 62 64 78 79 83 76 76 79 90 95 93 64 44 52 53 6 9 17 19 20 20 20 24 26 26 24
10 10 14 20 22 23 24 26 29 28 30 26 26 24 24 27 33 42 42 38 48 47 62 83 72 79 76 70 66 72 96 99 80 98 88 59 42 51 9 17 20 22 22 24 28 30 29 28 27
10 12 18 21 22 23 24 24 25 30 32 27 27 27 28 34 37 37 36 37 41 55 61 72 82 83 91 85 95 94 83 100 93 93 99 77 58 45 16 31 23 24 26 32 34 32 33 31 29
12 17 21 20 22 24 28 25 26 24 25 28 29 30 31 34 38 37 37 37 50 60 64 73 79 80 79 78 73 79 81 100 100 95 100 93 74 29 15 22 25 29 36 37 37 37 36 34 32
13 18 18 22 23 25 28 27 25 26 26 30 31 33 36 38 40 43 44 42 50 57 61 71 78 84 88 82 70 73 79 87 95 100 94 97 20 22 22 22 28 38 41 41 42 40 37 38 35
16 14 15 21 23 27 28 28 27 27 28 27 32 38 42 43 49 49 52 42 55 55 65 72 81 83 83 86 91 94 97 98 97 100 99 59 25 32 26 26 36 44 45 47 43 41 40 37 31
17 13 14 20 24 29 27 26 27 28 26 28 33 41 46 50 52 47 43 38 35 49 50 61 66 77 75 76 84 92 94 97 99 99 100 70 69 70 32 34 42 50 51 46 46 46 40 35 32
19 16 14 18 23 25 26 26 28 26 26 29 33 40 49 50 48 49 50 49 49 54 69 73 71 64 74 82 82 80 78 100 100 100 100 87 49 48 41 48 48 56 54 52 45 50 54 50 46
18 14 15 14 20 24 25 26 28 25 27 31 32 41 52 48 47 59 59 54 46 37 38 37 37 48 55 67 87 87 99 100 100 100 99 67 57 49 55 49 66 59 60 55 51 59 66 66 54
18 15 14 13 14 22 25 26 25 27 31 33 34 40 51 32 42 59 58 34 26 24 22 22 21 25 30 53 97 99 98 100 100 100 99 68 72 81 83 72 68 64 69 72 65 64 58 54 55
20 18 14 12 15 23 22 22 26 32 36 34 38 44 50 30 32 35 36 28 22 19 24 29 39 46 60 97 99 100 100 98 100 99 100 97 96 80 88 93 81 79 75 73 78 62 56 50 48
22 19 16 13 16 25 24 26 29 29 30 37 38 44 51 39 30 32 26 20 21 22 24 30 53 85 100 98 100 97 100 100 100 99 86 89 79 97 96 96 97 93 95 88 82 65 60 47 40
27 25 19 15 13 21 19 29 28 28 28 33 36 41 50 46 32 32 33 21 21 22 26 42 90 99 98 100 97 97 100 100 100 96 92 87 95 100 84 97 91 90 89 94 83 78 68 54 48
28 24 20 15 13 12 19 31 30 28 30 33 33 38 44 48 32 33 34 27 25 24 28 57 94 100 99 100 97 100 100 100 99 99 98 94 91 100 98 94 98 99 98 100 87 89 80 67 61
26 26 21 16 17 16 21 27 32 27 33 32 33 35 40 46 40 34 29 25 27 25 30 70 99 90 97 98 99 100 100 100 100 100 97 93 97 98 98 96 99 98 98 100 99 94 87 83 81
26 30 26 20 18 18 20 23 32 28 31 29 30 31 35 40 31 34 23 24 29 26 29 69 91 90 87 97 90 100 99 100 100 100 99 99 98 99 98 94 95 96 95 97 90 94 90 86 89
25 30 30 23 22 20 18 25 33 31 26 30 30 30 33 37 29 31 24 25 31 28 27 44 72 79 81 80 95 96 100 99 100 100 99 98 98 99 99 98 98 96 89 84 80 78 79 83 94
29 28 30 25 34 29 31 34 35 30 24 26 25 29 33 35 40 27 21 26 32 28 26 28 36 55 68 78 99 99 98 98 99 98 99 99 99 97 98 96 92 90 94 88 91 78 71 85 88
31 33 31 30 30 34 35 42 38 37 26 20 25 28 28 33 40 33 25 19 28 30 25 28 28 29 32 42 63 87 100 100 100 100 100 100 99 100 100 99 97 96 97 94 84 71 65 73 72
38 38 43 41 47 54 45 45 39 34 26 20 21 28 24 29 36 41 38 26 21 26 21 25 28 30 30 31 37 56 79 95 85 86 98 99 100 100 99 99 100 99 97 98 94 89 89 79 89
45 48 47 58 60 48 37 45 38 34 28 29 35 33 27 24 28 30 42 48 29 24 25 22 26 28 31 33 32 34 40 64 73 85 91 97 100 100 89 77 81 83 88 89 93 95 85 87 89
38 47 49 45 57 44 47 47 36 30 30 26 24 25 32 22 24 28 38 49 47 23 26 25 23 27 29 30 32 33 34 35 37 47 59 69 70 66 80 82 86 87 76 76 88 84 82 74 70
50 64 44 44 56 60 46 41 37 34 30 35 32 31 29 29 31 30 34 43 39 21 23 25 27 25 28 32 33 34 37 40 41 40 40 42 47 56 62 62 63 66 71 76 82 82 70 65 62
43 39 54 55 52 50 47 52 38 29 30 39 32 35 32 31 31 32 36 36 38 36 37 41 37 30 30 31 32 35 36 40 43 46 47 47 46 46 48 51 56 62 67 73 78 68 65 78 75
54 48 44 45 44 44 45 45 35 30 35 37 36 35 32 32 35 34 32 30 37 44 46 48 50 52 48 36 32 34 36 38 42 45 47 50 52 54 54 56 55 55 61 64 62 60 64 82 98
46 46 44 50 51 56 51 44 36 34 35 34 33 32 32 33 31 30 31 33 37 41 45 47 50 52 56 53 50 48 41 41 43 46 48 50 52 50 52 58 64 65 82 94 99 98 100 99 99

GFSSGP_700_rhum_078.txt.gz
RH
7 7 6 6 22 13 9 14 21 22 23 22 26 29 45 31 48 43 25 24 29 51 62 60 45 54 58 69 78 84 68 65 64 68 65 61 57 45 37 13 9 27 64 24 16 12 14 14 13
8 7 7 9 18 13 13 20 23 24 26 20 20 27 33 45 28 30 27 31 36 34 46 69 62 63 66 76 81 85 74 70 67 68 70 70 61 41 27 12 10 10 34 22 13 13 15 13 15
9 8 13 26 20 14 16 22 25 27 22 22 27 30 30 40 28 26 26 31 42 38 42 56 85 84 86 77 86 86 83 89 74 74 75 72 60 32 25 9 9 11 18 16 15 16 15 18 19
9 8 9 22 18 22 22 25 28 24 22 23 23 30 24 24 24 25 30 34 40 44 42 61 90 94 92 72 64 96 94 91 82 75 75 72 53 38 47 8 7 8 17 18 17 17 19 21 21
9 8 22 17 20 25 27 29 29 28 24 25 26 37 24 24 27 30 36 38 39 46 52 56 65 87 97 92 64 99 98 90 88 77 76 72 53 46 22 8 6 13 19 19 19 20 22 24 24
21 12 19 14 20 25 27 26 27 26 31 26 26 26 26 28 30 34 33 33 38 40 51 56 68 76 100 98 89 96 85 82 86 94 91 86 67 37 48 7 7 14 21 19 22 25 26 25 24
27 24 19 16 18 24 26 24 35 29 31 40 26 28 31 30 32 33 35 38 38 41 59 60 75 61 88 97 76 83 89 82 88 90 100 99 88 39 84 17 16 17 31 24 28 30 28 27 25
19 23 23 19 18 20 26 23 22 23 31 25 26 32 45 31 34 39 42 42 43 44 64 67 69 78 86 95 89 85 79 87 93 96 99 90 97 51 81 60 27 19 20 29 33 31 30 28 25
12 23 20 18 21 22 27 25 28 23 24 24 26 28 31 35 38 44 47 49 51 51 62 69 77 86 88 88 95 94 90 95 96 100 96 97 96 74 47 39 33 22 25 37 34 34 33 32 29
20 21 20 21 23 26 28 23 25 25 29 31 28 28 31 38 44 48 49 46 47 62 60 61 72 78 76 75 81 93 85 81 88 100 96 99 98 69 52 82 32 26 34 38 38 37 35 36 32
23 22 21 24 23 28 26 26 27 28 28 31 36 34 31 43 49 50 44 41 39 46 55 54 63 71 79 78 87 90 86 97 98 100 97 96 97 95 66 40 32 33 39 40 39 39 40 36 33
22 15 21 23 27 23 28 28 26 31 29 25 28 30 33 47 50 40 46 52 50 50 49 50 58 67 72 79 84 92 98 99 99 98 100 100 100 56 44 41 33 41 41 44 40 41 38 35 36
15 23 26 16 27 18 25 21 29 22 26 26 30 32 38 48 31 32 56 62 58 49 39 38 45 52 60 65 69 75 96 96 83 100 98 100 96 59 51 42 46 47 48 43 48 50 50 57 60
29 22 25 25 26 25 15 20 26 22 26 34 33 37 42 48 30 27 32 31 27 25 23 21 21 21 25 28 45 63 85 61 98 100 100 100 97 91 81 65 55 52 50 46 48 61 65 62 54
24 26 26 26 26 25 22 24 22 31 32 35 36 38 40 44 33 27 26 24 22 21 23 24 26 31 31 31 60 98 83 99 100 100 100 98 98 98 98 66 73 57 58 64 69 67 64 58 50
30 33 28 25 18 21 18 19 30 30 29 29 34 36 38 41 34 26 27 19 20 20 22 23 26 34 49 69 98 74 99 100 99 100 100 100 97 94 88 78 73 84 80 76 76 71 67 55 47
35 26 27 26 22 30 29 23 28 29 28 27 30 33 36 41 41 30 26 24 23 24 24 25 31 51 80 100 93 100 98 100 100 100 100 98 95 98 98 93 86 94 94 96 82 72 64 54 47
28 30 28 27 24 21 29 30 25 29 27 27 32 33 35 39 44 31 25 23 24 27 25 27 50 84 100 88 98 99 99 100 100 100 98 99 96 96 97 98 97 92 90 84 89 84 73 60 59
30 30 28 24 27 23 26 25 23 23 30 26 33 32 33 35 39 39 23 19 23 28 25 34 68 96 89 98 93 96 99 100 100 99 100 99 98 95 94 94 95 99 90 93 92 86 80 78 69
38 33 29 28 33 26 25 22 22 24 29 32 34 33 30 31 34 33 22 17 22 28 24 42 64 82 85 93 94 98 100 100 100 100 96 94 85 93 97 100 99 98 80 89 90 89 89 94 86
39 36 32 31 32 34 29 26 19 21 32 27 27 30 30 30 34 33 24 14 25 27 24 34 65 81 81 78 82 97 100 100 99 98 97 94 96 95 100 99 98 91 87 98 96 96 90 96 98
35 35 38 39 36 30 33 23 19 27 29 29 31 30 28 30 36 38 23 16 25 26 22 27 41 69 83 82 83 92 100 100 98 99 99 99 96 96 96 99 99 93 99 92 90 95 95 91 89
38 35 41 37 36 35 31 29 21 29 32 30 29 32 29 29 36 39 32 20 20 24 18 24 28 33 49 67 80 97 99 100 100 99 100 100 99 99 99 96 99 97 96 95 85 87 84 89 81
45 45 44 44 39 39 35 28 24 23 28 29 29 30 31 28 31 38 40 37 24 22 17 20 25 28 31 37 60 81 98 100 100 100 98 99 100 100 100 100 98 99 96 96 88 85 86 89 85
42 42 39 45 45 38 33 32 27 31 32 32 33 34 40 28 27 32 37 36 44 22 19 18 20 24 30 32 35 43 86 89 99 100 100 98 99 99 99 100 96 98 96 95 95 94 88 91 90
47 44 36 39 38 33 42 33 31 32 29 27 31 30 29 30 24 25 29 36 46 33 22 17 19 20 23 30 33 33 33 50 82 97 91 90 94 93 100 97 97 94 98 100 99 97 97 95 87
54 53 45 38 44 42 33 37 35 33 32 32 38 32 33 33 26 24 28 34 43 35 21 23 19 20 23 25 28 33 35 35 35 44 57 59 62 71 87 97 85 92 83 85 86 88 85 82 84
45 46 51 50 53 49 31 32 30 34 31 33 40 42 37 34 32 32 32 35 40 27 22 24 26 24 24 25 27 29 33 37 39 39 38 39 41 47 56 57 60 62 66 75 74 75 75 76 77
50 49 46 40 43 40 38 30 37 35 34 35 35 36 33 34 32 32 31 34 42 31 28 30 33 30 27 26 26 28 30 32 37 42 44 46 44 44 45 47 50 55 59 63 66 68 68 72 79
49 48 46 42 40 44 39 35 36 34 39 38 35 31 34 34 37 37 36 36 34 34 35 40 45 48 50 49 43 32 31 32 34 36 40 45 47 47 47 48 50 52 54 58 60 62 67 92 96

GFSSGP_700_rhum_081.txt.gz
RH
8 8 7 9 24 17 11 8 12 16 18 21 28 31 33 42 31 44 37 23 21 25 34 58 66 75 65 68 56 70 77 75 63 70 80 89 86 64 48 19 7 15 57 28 14 11 11 12 13
9 8 8 30 17 13 10 12 16 17 20 24 18 26 31 34 53 50 24 21 21 30 31 43 56 58 57 58 60 73 83 78 72 81 88 100 86 66 54 24 10 19 74 35 16 14 15 15 13
9 8 39 24 17 14 13 17 17 22 25 24 30 39 43 40 50 26 23 26 26 31 33 33 40 70 80 82 66 73 84 79 79 80 90 88 82 75 62 23 12 8 65 39 16 16 15 14 14
9 18 27 16 15 16 18 18 22 24 26 27 30 29 44 25 23 24 27 31 34 38 39 34 45 52 88 88 88 82 88 91 92 89 86 84 87 91 56 31 12 7 31 26 16 16 15 17 19
10 31 22 18 15 17 21 21 25 25 29 33 38 28 42 44 25 29 29 32 33 32 37 40 48 59 79 85 96 95 98 81 98 85 82 81 82 64 54 34 14 12 8 16 16 17 19 21 22
31 26 21 15 13 17 21 23 27 29 29 36 35 33 35 42 28 30 32 32 33 36 39 40 55 66 68 67 91 92 96 82 100 98 95 87 87 76 68 24 12 14 13 16 18 20 24 25 24
32 26 21 15 14 16 20 26 28 28 26 27 35 36 34 40 30 30 32 36 38 41 40 43 56 60 76 72 79 93 94 90 98 92 86 96 96 88 33 76 13 11 23 19 18 26 28 26 23
30 26 21 17 16 15 19 24 27 30 25 29 30 27 32 59 32 30 34 38 43 46 46 47 56 62 67 76 78 92 94 96 99 97 78 79 100 93 41 71 41 27 34 31 21 28 28 24 22
33 24 20 16 16 15 20 24 22 29 29 28 38 36 40 28 28 34 39 44 48 46 49 51 62 66 69 76 70 97 96 92 100 99 92 85 97 99 64 79 62 43 34 28 27 30 28 26 24
30 22 19 17 17 17 19 23 23 24 24 28 38 36 36 31 30 43 47 45 43 40 41 56 65 66 67 71 76 82 90 93 96 95 93 94 95 98 97 78 93 46 30 28 34 31 30 28 27
29 25 19 18 21 19 20 22 22 24 25 23 31 35 38 34 33 46 38 24 37 39 39 45 61 63 65 69 74 78 81 85 95 94 93 98 98 97 95 96 90 44 31 38 35 34 32 31 30
27 26 22 20 20 22 22 22 21 22 25 27 36 35 39 32 41 39 26 58 50 50 50 51 51 57 68 70 76 72 74 81 90 85 93 97 98 99 98 96 89 41 38 40 36 36 37 36 33
26 24 22 22 21 22 24 23 23 23 24 28 33 30 30 35 41 24 26 23 34 55 52 46 45 51 74 69 80 80 80 80 88 90 97 96 100 99 97 96 98 42 45 41 38 39 38 34 35
26 25 27 23 23 22 22 22 22 22 25 35 29 31 34 35 34 26 24 19 25 23 25 24 24 25 28 37 47 57 63 72 78 76 82 99 81 100 100 100 90 47 46 42 40 40 39 52 52
28 27 26 26 24 23 23 21 21 21 25 36 33 33 36 35 30 22 23 24 17 17 19 24 25 25 22 19 18 21 32 35 53 59 55 90 97 100 99 97 74 53 45 43 44 51 60 62 55
32 30 28 24 24 23 23 19 18 20 36 39 44 29 34 34 36 31 21 22 22 22 22 22 24 25 28 31 35 38 50 46 60 74 100 100 100 99 98 98 94 78 51 44 51 63 64 59 56
32 28 26 26 24 22 22 20 21 30 35 38 40 50 45 32 35 38 30 19 22 23 26 26 25 28 42 71 78 97 87 87 98 100 100 100 99 98 92 98 96 65 50 49 70 70 68 62 60
30 26 28 25 22 23 24 28 24 26 30 32 32 39 53 54 36 36 37 24 19 21 24 25 24 52 68 96 93 95 97 100 100 99 99 99 100 99 99 98 98 71 60 77 92 96 92 78 66
32 26 24 23 22 25 25 22 21 23 21 23 30 30 44 55 70 33 37 23 20 18 24 21 41 65 98 97 89 97 97 98 98 98 100 100 99 99 98 98 98 84 94 93 91 87 92 90 64
36 31 28 27 25 28 26 24 22 20 19 20 25 27 37 46 62 35 35 26 20 14 24 20 52 73 88 84 93 88 96 98 100 100 100 100 100 96 98 95 96 93 98 96 99 96 98 89 64
38 37 33 30 27 29 29 27 26 24 22 21 24 28 29 40 55 47 35 30 16 17 22 20 50 67 79 86 78 85 98 99 100 99 98 99 99 99 96 95 96 98 99 99 95 98 96 90 76
44 39 35 32 31 30 27 24 22 19 17 19 27 29 32 35 49 54 35 26 18 18 20 17 28 60 72 80 76 81 98 99 99 100 100 98 99 99 98 100 97 98 98 99 98 100 99 92 92
45 38 33 31 33 35 29 28 25 23 20 21 24 25 27 37 44 36 35 37 26 20 19 15 22 27 47 68 85 86 93 100 100 100 100 99 99 96 89 96 100 98 97 99 99 99 92 74 80
45 36 37 35 34 33 30 29 25 22 22 24 25 24 27 34 46 39 35 39 35 30 18 14 17 22 26 32 55 83 93 99 99 97 98 100 100 99 96 99 100 100 99 98 99 96 88 82 80
45 37 36 38 38 38 29 30 29 24 25 26 28 28 27 33 49 53 34 34 37 41 20 14 16 19 23 26 31 42 71 99 100 98 99 98 98 99 98 98 96 99 99 99 99 98 98 86 78
43 39 33 43 44 35 30 28 26 27 28 27 28 29 30 39 47 48 30 33 31 43 27 15 15 16 19 25 29 33 39 63 98 99 98 98 94 98 99 99 100 99 99 99 96 94 96 91 83
58 45 37 52 47 40 38 32 33 32 30 29 31 33 32 33 38 50 30 27 29 40 36 17 14 18 18 21 26 30 33 34 44 67 88 94 100 100 100 99 99 98 100 99 99 92 93 95 93
62 58 52 51 54 51 34 30 31 31 31 30 34 38 38 38 42 50 25 25 28 36 38 18 17 16 20 22 23 25 31 35 36 37 37 49 72 73 83 99 98 97 98 87 83 84 82 89 81
58 55 74 64 48 48 50 38 35 33 32 32 35 39 41 46 51 49 31 32 34 34 31 18 20 19 18 20 22 24 26 30 36 39 40 38 42 48 53 56 65 71 71 81 82 81 82 84 90
47 44 50 59 54 48 44 48 36 38 43 41 43 40 40 41 47 37 34 33 32 34 36 18 21 23 23 24 24 24 25 27 28 31 37 43 45 44 44 46 49 51 56 72 74 76 78 81 64